Location: Audinghen
(50.8518°N, 1.6129°E)
Time: 17:01:20
(UTC+00:00)

ATLAS 3B R/B - Pass Details

Date: 07 August 2020
Orbit: 1016 x 1179 km, 63.8° (Epoch: 22 September)

Event Time Altitude Azimuth Distance (km) Brightness Sun altitude
Rises 03:30:47 0° 288° (WNW) 3,766 5.2 -8.5°
Reaches altitude 10° 03:33:50 10° 301° (WNW) 2,826 4.7 -8.1°
Maximum altitude 03:39:23 27° 358° (N) 1,886 4.5 -7.5°
Drops below altitude 10° 03:45:05 10° 54° (NE) 2,899 6.8 -6.7°
Sets 03:48:16 0° 67° (ENE) 3,882 7.7 -6.3°
